Radiation Dose at Monitoring Post of Fukushima Daini Nuclear Power Station
Date,Time,MP-1(microSv/h),MP-2(microSv/h),MP-3(microSv/h),MP-4(microSv/h),MP-5(microSv/h),MP-6(microSv/h),MP-7(microSv/h),Wind Direction,Wind Velocity(m/s),Rain
2015/08/05,00:00,0.524,0.306,0.545,0.504,0.468,0.243,0.216,north-northeast,1.0,No
2015/08/05,00:10,0.520,0.302,0.544,0.498,0.467,0.243,0.216,-,CALM,No
2015/08/05,00:20,0.516,0.300,0.551,0.495,0.473,0.244,0.214,northeast,1.2,No
2015/08/05,00:30,0.520,0.300,0.551,0.502,0.473,0.244,0.216,northeast,1.0,No
2015/08/05,00:40,0.525,0.304,0.546,0.504,0.470,0.243,0.216,-,CALM,No
2015/08/05,00:50,0.520,0.303,0.546,0.498,0.466,0.244,0.215,-,CALM,No
2015/08/05,01:00,0.516,0.300,0.552,0.494,0.473,0.245,0.214,-,CALM,No
2015/08/05,01:10,0.525,0.301,0.549,0.499,0.476,0.244,0.216,south-southwest,0.6,No
2015/08/05,01:20,0.522,0.303,0.545,0.504,0.470,0.241,0.216,southeast,0.7,No
2015/08/05,01:30,0.518,0.301,0.546,0.500,0.468,0.245,0.214,east-southeast,1.0,No
2015/08/05,01:40,0.517,0.300,0.551,0.496,0.467,0.244,0.216,southeast,1.0,No
2015/08/05,01:50,0.523,0.304,0.549,0.502,0.473,0.243,0.216,east-southeast,1.0,No
2015/08/05,02:00,0.520,0.301,0.546,0.503,0.469,0.244,0.213,-,CALM,No
2015/08/05,02:10,0.516,0.300,0.547,0.500,0.466,0.245,0.214,-,CALM,No
2015/08/05,02:20,0.517,0.301,0.550,0.496,0.467,0.244,0.216,south-southwest,1.1,No
2015/08/05,02:30,0.524,0.304,0.547,0.500,0.474,0.242,0.215,south-southwest,2.7,No
2015/08/05,02:40,0.521,0.301,0.545,0.504,0.470,0.245,0.213,south-southwest,3.6,No
2015/08/05,02:50,0.515,0.298,0.548,0.500,0.465,0.243,0.215,southwest,4.3,No
2015/08/05,03:00,0.516,0.303,0.551,0.496,0.464,0.242,0.215,south-southwest,4.4,No
2015/08/05,03:10,0.522,0.302,0.546,0.499,0.473,0.244,0.213,south-southwest,4.2,No
2015/08/05,03:20,0.517,0.301,0.543,0.504,0.471,0.243,0.215,southwest,4.4,No
2015/08/05,03:30,0.513,0.301,0.548,0.499,0.467,0.243,0.214,south-southwest,3.3,No
2015/08/05,03:40,0.520,0.301,0.550,0.496,0.463,0.244,0.212,south-southwest,4.1,No
2015/08/05,03:50,0.523,0.301,0.546,0.498,0.468,0.243,0.215,south-southwest,3.3,No
2015/08/05,04:00,0.516,0.299,0.544,0.504,0.473,0.242,0.214,south-southwest,3.1,No
2015/08/05,04:10,0.514,0.302,0.549,0.498,0.467,0.242,0.214,south-southwest,2.7,No
2015/08/05,04:20,0.523,0.303,0.548,0.495,0.466,0.244,0.214,south-southwest,2.8,No
2015/08/05,04:30,0.521,0.299,0.547,0.496,0.466,0.243,0.214,south-southwest,3.3,No
2015/08/05,04:40,0.514,0.300,0.544,0.503,0.474,0.243,0.213,southwest,3.6,No
2015/08/05,04:50,0.518,0.303,0.552,0.499,0.470,0.244,0.213,southwest,3.2,No
2015/08/05,05:00,0.524,0.301,0.551,0.497,0.466,0.243,0.214,southwest,2.6,No
2015/08/05,05:10,0.519,0.298,0.546,0.497,0.465,0.241,0.214,southwest,2.5,No
2015/08/05,05:20,0.515,0.303,0.542,0.503,0.471,0.243,0.211,southwest,3.3,No
2015/08/05,05:30,0.522,0.301,0.550,0.501,0.471,0.243,0.215,southwest,3.1,No
2015/08/05,05:40,0.522,0.299,0.551,0.495,0.467,0.242,0.215,southwest,1.6,No
2015/08/05,05:50,0.519,0.302,0.546,0.496,0.466,0.243,0.213,west-southwest,1.3,No
2015/08/05,06:00,0.514,0.303,0.543,0.502,0.463,0.243,0.212,west,1.4,No
2015/08/05,06:10,0.521,0.299,0.548,0.501,0.466,0.242,0.212,west-southwest,1.6,No
2015/08/05,06:20,0.520,0.298,0.551,0.495,0.471,0.243,0.212,west,1.4,No
2015/08/05,06:30,0.517,0.302,0.548,0.494,0.471,0.242,0.213,west,1.2,No
2015/08/05,06:40,0.514,0.303,0.543,0.494,0.470,0.244,0.212,west,1.1,No
2015/08/05,06:50,0.522,0.302,0.544,0.501,0.467,0.242,0.214,south,0.6,No
2015/08/05,07:00,0.522,0.302,0.549,0.502,0.466,0.244,0.214,south,0.7,No
2015/08/05,07:10,0.519,0.299,0.550,0.499,0.469,0.244,0.213,south,1.3,No
2015/08/05,07:20,0.514,0.300,0.546,0.500,0.468,0.244,0.214,south-southwest,1.0,No
2015/08/05,07:30,0.519,0.301,0.547,0.498,0.469,0.243,0.216,south-southwest,1.3,No
2015/08/05,07:40,0.522,0.300,0.544,0.498,0.468,0.243,0.215,south-southwest,1.3,No
2015/08/05,07:50,0.520,0.301,0.546,0.498,0.469,0.244,0.214,southwest,1.1,No
2015/08/05,08:00,0.517,0.301,0.544,0.499,0.468,0.244,0.215,-,CALM,No
2015/08/05,08:10,0.516,0.302,0.545,0.500,0.469,0.243,0.215,-,CALM,No
2015/08/05,08:20,0.514,0.302,0.545,0.501,0.471,0.244,0.214,-,CALM,No
2015/08/05,08:30,0.515,0.302,0.547,0.502,0.471,0.242,0.215,-,CALM,No
2015/08/05,08:40,0.517,0.302,0.545,0.503,0.472,0.244,0.216,-,CALM,No
2015/08/05,08:50,0.518,0.302,0.546,0.505,0.471,0.244,0.216,-,CALM,No
2015/08/05,09:00,0.518,0.305,0.544,0.506,0.472,0.243,0.215,-,CALM,No
2015/08/05,09:10,0.518,0.304,0.546,0.505,0.474,0.244,0.217,-,CALM,No
2015/08/05,09:20,0.521,0.305,0.546,0.507,0.474,0.243,0.215,-,CALM,No
2015/08/05,09:30,0.521,0.306,0.546,0.508,0.475,0.244,0.216,east-northeast,0.6,No
2015/08/05,09:40,0.522,0.305,0.546,0.507,0.474,0.245,0.216,south-southeast,0.5,No
2015/08/05,09:50,0.522,0.305,0.548,0.506,0.475,0.246,0.217,south-southeast,1.2,No
2015/08/05,10:00,0.523,0.305,0.545,0.506,0.475,0.247,0.216,south-southeast,2.2,No
2015/08/05,10:10,0.522,0.302,0.548,0.505,0.472,0.246,0.216,south,3.7,No
2015/08/05,10:20,0.523,0.302,0.549,0.504,0.470,0.245,0.217,south,4.5,No
2015/08/05,10:30,0.523,0.302,0.548,0.504,0.470,0.247,0.217,south,4.7,No
2015/08/05,10:40,0.523,0.300,0.549,0.502,0.468,0.245,0.216,south,5.3,No
2015/08/05,10:50,0.522,0.301,0.551,0.503,0.469,0.246,0.217,south,4.7,No
2015/08/05,11:00,0.525,0.300,0.552,0.502,0.470,0.246,0.218,south,3.4,No
2015/08/05,11:10,0.523,0.300,0.555,0.504,0.469,0.245,0.218,south,4.0,No
2015/08/05,11:20,0.522,0.301,0.554,0.502,0.469,0.244,0.217,south,3.5,No
2015/08/05,11:30,0.524,0.301,0.556,0.505,0.468,0.246,0.218,south,3.6,No
2015/08/05,11:40,0.524,0.301,0.555,0.503,0.468,0.246,0.217,south,3.7,No
2015/08/05,11:50,0.524,0.302,0.554,0.502,0.468,0.245,0.218,south,3.6,No
2015/08/05,12:00,0.523,0.300,0.554,0.503,0.468,0.245,0.217,south,3.9,No
2015/08/05,12:10,0.521,0.299,0.553,0.503,0.467,0.244,0.217,south,3.8,No
2015/08/05,12:20,0.521,0.299,0.551,0.504,0.463,0.245,0.217,south,3.3,No
2015/08/05,12:30,0.520,0.300,0.553,0.501,0.464,0.246,0.218,south,3.9,No
2015/08/05,12:40,0.521,0.300,0.554,0.501,0.462,0.244,0.217,south,3.8,No
2015/08/05,12:50,0.520,0.299,0.554,0.500,0.462,0.246,0.217,south,3.9,No
2015/08/05,13:00,0.519,0.299,0.551,0.502,0.463,0.245,0.216,south,3.5,No
2015/08/05,13:10,0.519,0.301,0.553,0.502,0.461,0.245,0.216,south,4.2,No
2015/08/05,13:20,0.520,0.301,0.553,0.502,0.463,0.245,0.217,south,3.8,No
2015/08/05,13:30,0.519,0.301,0.551,0.502,0.462,0.245,0.217,south,3.7,No
2015/08/05,13:40,0.519,0.299,0.550,0.500,0.460,0.245,0.215,south,4.7,No
2015/08/05,13:50,0.519,0.299,0.550,0.501,0.461,0.245,0.216,south,4.2,No
2015/08/05,14:00,0.518,0.299,0.550,0.501,0.461,0.245,0.216,south,3.5,No
2015/08/05,14:10,0.517,0.300,0.549,0.501,0.462,0.246,0.217,south,3.1,No
2015/08/05,14:20,0.521,0.299,0.548,0.502,0.461,0.245,0.216,south,3.8,No
2015/08/05,14:30,0.521,0.301,0.549,0.500,0.459,0.245,0.216,south,3.0,No
2015/08/05,14:40,0.523,0.299,0.548,0.501,0.461,0.246,0.217,south,3.3,No
2015/08/05,14:50,0.522,0.301,0.548,0.501,0.459,0.244,0.217,south,3.7,No
2015/08/05,15:00,0.520,0.301,0.549,0.501,0.456,0.245,0.216,south,3.6,No
2015/08/05,15:10,0.520,0.300,0.548,0.498,0.436,0.245,0.215,south-southwest,3.6,No
2015/08/05,15:20,0.521,0.299,0.546,0.499,0.451,0.245,0.216,south-southwest,4.3,No
2015/08/05,15:30,0.520,0.299,0.549,0.496,0.455,0.244,0.215,south,4.0,No
2015/08/05,15:40,0.520,0.300,0.546,0.496,0.448,0.245,0.214,south,4.8,No
2015/08/05,15:50,0.518,0.299,0.543,0.496,0.439,0.245,0.215,south-southwest,4.4,No
2015/08/05,16:00,0.520,0.299,0.542,0.497,0.441,0.244,0.213,south-southwest,4.0,No
2015/08/05,16:10,0.520,0.300,0.543,0.498,0.433,0.245,0.213,south-southwest,3.7,No
2015/08/05,16:20,0.520,0.299,0.544,0.498,0.447,0.244,0.214,south-southwest,4.4,No
2015/08/05,16:30,0.519,0.299,0.543,0.498,0.457,0.245,0.214,south-southwest,4.5,No
2015/08/05,16:40,0.518,0.301,0.543,0.498,0.463,0.244,0.213,south-southwest,4.5,No
2015/08/05,16:50,0.519,0.300,0.545,0.498,0.464,0.245,0.213,south-southwest,4.2,No
2015/08/05,17:00,0.520,0.298,0.543,0.500,0.465,0.244,0.213,south-southwest,4.4,No
2015/08/05,17:10,0.519,0.299,0.542,0.498,0.466,0.244,0.213,south-southwest,5.0,No
2015/08/05,17:20,0.519,0.300,0.543,0.498,0.464,0.242,0.213,south-southwest,4.7,No
2015/08/05,17:30,0.518,0.300,0.544,0.496,0.464,0.241,0.212,south-southwest,6.2,No
2015/08/05,17:40,0.518,0.298,0.544,0.498,0.461,0.241,0.213,south-southwest,6.6,No
2015/08/05,17:50,0.518,0.299,0.544,0.496,0.460,0.240,0.213,south-southwest,5.4,No
2015/08/05,18:00,0.519,0.299,0.545,0.500,0.462,0.241,0.212,south-southwest,3.8,No
2015/08/05,18:10,0.518,0.299,0.545,0.497,0.462,0.242,0.213,south-southwest,3.3,No
2015/08/05,18:20,0.515,0.298,0.544,0.498,0.462,0.241,0.211,southwest,2.8,No
2015/08/05,18:30,0.517,0.299,0.544,0.495,0.461,0.242,0.212,west-southwest,2.2,No
2015/08/05,18:40,0.515,0.299,0.543,0.497,0.462,0.241,0.212,west,2.2,No
2015/08/05,18:50,0.515,0.298,0.543,0.498,0.463,0.242,0.215,west-southwest,2.0,No
2015/08/05,19:00,0.517,0.298,0.544,0.497,0.465,0.241,0.216,west-northwest,2.4,No
2015/08/05,19:10,0.514,0.298,0.544,0.497,0.460,0.242,0.214,northwest,1.7,No
2015/08/05,19:20,0.522,0.298,0.545,0.495,0.461,0.243,0.213,northwest,1.3,No
2015/08/05,19:30,0.522,0.300,0.544,0.497,0.463,0.244,0.213,north-northwest,0.8,No
2015/08/05,19:40,0.522,0.302,0.546,0.494,0.464,0.244,0.215,north,0.6,No
2015/08/05,19:50,0.518,0.302,0.543,0.497,0.465,0.243,0.215,-,CALM,No
2015/08/05,20:00,0.518,0.302,0.543,0.505,0.464,0.244,0.213,-,CALM,No
2015/08/05,20:10,0.519,0.299,0.545,0.504,0.464,0.244,0.213,southwest,0.7,No
2015/08/05,20:20,0.524,0.300,0.548,0.499,0.463,0.244,0.216,south-southwest,1.2,No
2015/08/05,20:30,0.524,0.302,0.553,0.498,0.465,0.244,0.216,south-southwest,1.7,No
2015/08/05,20:40,0.520,0.303,0.550,0.497,0.473,0.243,0.215,south-southwest,1.7,No
2015/08/05,20:50,0.518,0.301,0.547,0.499,0.472,0.244,0.214,south,1.6,No
2015/08/05,21:00,0.519,0.299,0.546,0.505,0.468,0.244,0.214,south-southwest,1.0,No
2015/08/05,21:10,0.524,0.301,0.545,0.506,0.467,0.244,0.215,south-southwest,1.9,No
2015/08/05,21:20,0.522,0.304,0.550,0.501,0.465,0.244,0.216,southwest,3.0,No
2015/08/05,21:30,0.520,0.302,0.554,0.497,0.464,0.245,0.215,southwest,2.6,No
2015/08/05,21:40,0.517,0.301,0.551,0.498,0.471,0.245,0.214,south-southwest,2.3,No
2015/08/05,21:50,0.521,0.300,0.547,0.506,0.472,0.243,0.217,southwest,1.6,No
2015/08/05,22:00,0.527,0.304,0.546,0.505,0.471,0.243,0.217,southwest,1.3,No
2015/08/05,22:10,0.522,0.304,0.549,0.502,0.467,0.246,0.215,west,1.1,No
2015/08/05,22:20,0.517,0.301,0.553,0.498,0.466,0.244,0.215,west-northwest,2.2,No
2015/08/05,22:30,0.518,0.299,0.551,0.497,0.466,0.242,0.216,west,1.6,No
2015/08/05,22:40,0.526,0.303,0.549,0.507,0.474,0.244,0.216,west,1.0,No
2015/08/05,22:50,0.525,0.304,0.546,0.505,0.473,0.244,0.214,northwest,1.3,No
2015/08/05,23:00,0.521,0.302,0.550,0.499,0.472,0.244,0.215,north-northwest,0.7,No
2015/08/05,23:10,0.517,0.300,0.553,0.498,0.465,0.244,0.217,north-northeast,1.6,No
2015/08/05,23:20,0.523,0.302,0.551,0.497,0.464,0.244,0.215,-,CALM,No
2015/08/05,23:30,0.526,0.304,0.546,0.505,0.466,0.244,0.215,northwest,0.6,No
2015/08/05,23:40,0.523,0.303,0.544,0.503,0.473,0.244,0.215,-,CALM,No
2015/08/05,23:50,0.520,0.300,0.552,0.500,0.472,0.244,0.218,southeast,0.6,No
